Flag for Germany Weather past 2 weeks in Tuttlingen, Baden-Württemberg, Germany

Now
49 °F

Overcast.


Feels Like: 49 °F
Forecast: 32 / 56 °F
Wind: No wind

Location: Konstanz

Current Time: Oct 26, 2014 at 4:17:26 AM

Latest Report: Oct 26, 2014 at 4:00 AM


Visibility: 6 mi

Pressure: 30.28 "Hg

Humidity: 94%

Dew point: 48 °F

Location of TuttlingenLocation

Historic Weather in Tuttlingen — Graph

°F

Tuttlingen temperature yesterday

Maximum temperature yesterday: 53 °F (at 4:00 PM)
Minimum temperature yesterday: 42 °F (at 3:00 AM)
Average temperature yesterday: 48 °F

Past Weeks' High & Low Weather Summary

 TemperatureHumidityPressure
High72 °F (Oct 20, 3:00 PM)100% (Oct 18, 3:00 AM)30.32 "Hg (Oct 18, 3:00 AM)
Low41 °F (Oct 22, 9:00 AM)53% (Oct 21, 5:00 PM)29.69 "Hg (Oct 21, 8:00 PM)
Average55 °F86%30.03 "Hg
* Reported Oct 11 4:00 AM — Oct 26 3:00 AM, Tuttlingen, Weather by CustomWeather, © 2014

Note: Actual official high and low records may vary slightly from our data, if they occured in-between our weather recording intervals... More about our weather records

Advertising

Tuttlingen weather history for previous 24 hours

 ConditionsComfort  
Time TempWeatherWind HumidityBarometerVisibility
3:00 AM
Oct 26
49 °FOvercast.1 mph94%30.28 "Hg7 mi
2:00 AM49 °FOvercast.1 mph92%30.29 "Hg9 mi
2:00 AM49 °FOvercast.1 mph94%30.28 "Hg6 mi
1:00 AM49 °FOvercast.1 mph94%30.27 "Hg6 mi
12:00 AM49 °FPassing clouds.1 mph93%30.26 "Hg11 mi
11:00 PM
Oct 25
50 °FOvercast.1 mph92%30.25 "Hg7 mi
10:00 PM51 °FOvercast.2 mph88%30.24 "Hg9 mi
9:00 PM52 °FLight rain. Overcast.1 mph86%30.22 "Hg9 mi
8:00 PM52 °FOvercast.1 mph82%30.21 "Hg10 mi
7:00 PM52 °FOvercast.1 mph80%30.20 "Hg9 mi
6:00 PM52 °FOvercast.2 mph79%30.18 "Hg11 mi
5:00 PM53 °FOvercast.2 mph80%30.17 "Hg11 mi
4:00 PM53 °FOvercast.2 mph79%30.16 "Hg11 mi
3:00 PM53 °FOvercast.2 mph79%30.16 "Hg7 mi
2:00 PM52 °FOvercast.1 mph80%30.16 "Hg6 mi
1:00 PM51 °FLow clouds.1 mph84%30.17 "Hg6 mi
12:00 PM51 °FFog.1 mph81%30.17 "Hg4 mi
11:00 AM48 °FLow clouds.1 mph88%30.18 "Hg4 mi
10:00 AM47 °FRain. Low clouds.1 mph93%30.17 "Hg4 mi
9:00 AM46 °FLight rain. Low clouds.1 mph97%30.18 "Hg4 mi
8:00 AM45 °FLight rain. Low clouds.1 mph95%30.17 "Hg3 mi
7:00 AM44 °FLight rain. Low clouds.No wind94%30.16 "Hg4 mi
6:00 AM44 °FFog.1 mph95%30.15 "Hg4 mi
5:00 AM44 °FPassing clouds.1 mph95%30.15 "Hg6 mi
4:00 AM43 °FLow clouds.1 mph97%30.15 "Hg6 mi
Weather by CustomWeather, © 2014

See weather overviewHow to use our weather pages